Date,TemperatureHighF,TemperatureAvgF,TemperatureLowF,DewpointHighF,DewpointAvgF,DewpointLowF,HumidityHigh,HumidityAvg,HumidityLow,PressureMaxIn,PressureMinIn,WindSpeedMaxMPH,WindSpeedAvgMPH,GustSpeedMaxMPH,PrecipitationSumIn
2013-10-1,83.4,66.4,54.8,65.4,57.6,51.3,91,75,46,30.10,29.98,0,0,0,0.00
2013-10-2,85.3,69.6,59.9,67.6,59.9,56.9,91,74,41,30.10,29.99,0,0,0,0.01
2013-10-3,85.3,71.1,61.5,69.2,62.6,58.0,90,76,48,30.10,30.01,0,0,0,0.00
2013-10-4,87.0,72.4,64.5,69.8,64.2,60.7,91,77,48,30.09,30.00,0,0,0,0.00
2013-10-5,89.3,74.2,65.5,72.8,65.2,62.1,90,75,45,30.08,29.98,0,0,0,0.00
2013-10-6,84.0,73.7,64.3,72.1,67.5,61.0,91,81,64,30.03,29.90,0,0,0,0.00
2013-10-7,76.8,72.7,63.4,74.3,69.8,60.1,92,91,86,29.96,29.81,0,0,0,0.99
2013-10-8,63.4,59.8,58.1,60.1,51.0,48.0,89,72,67,30.18,29.96,0,0,0,0.00
2013-10-9,61.6,58.6,56.6,55.3,52.6,49.2,90,81,72,30.17,30.05,0,0,0,0.13
2013-10-10,62.6,59.2,56.5,59.9,56.6,53.6,92,91,90,30.05,29.90,0,0,0,0.11
2013-10-11,66.4,63.4,61.6,62.7,60.7,59.4,93,91,87,29.93,29.87,0,0,0,0.03
2013-10-12,69.6,66.2,63.7,65.9,63.4,60.7,93,91,88,30.04,29.91,0,0,0,0.02
2013-10-13,68.6,66.2,65.0,66.0,63.9,62.9,93,92,90,30.17,30.04,0,0,0,0.09
2013-10-14,66.8,64.1,58.7,64.5,61.6,56.0,94,92,88,30.21,30.15,0,0,0,0.09
2013-10-15,70.8,62.6,53.1,63.2,58.4,50.9,94,87,75,30.17,30.03,0,0,0,0.01
2013-10-16,70.9,66.5,62.6,64.4,62.4,59.3,91,87,77,30.03,29.92,0,0,0,0.00
2013-10-17,74.7,67.9,62.3,67.3,63.6,59.6,93,86,73,29.93,29.79,0,0,0,0.00
2013-10-18,69.3,62.8,53.8,65.4,54.3,-5.3,90,74,53,30.01,29.83,0,0,0,0.00
2013-10-19,70.3,63.9,59.3,65.4,60.1,55.3,90,88,84,29.95,29.77,0,0,0,0.02
2013-10-20,64.2,55.8,47.1,58.5,49.1,42.4,92,80,48,30.08,29.86,0,0,0,0.01
2013-10-21,52.5,52.1,51.9,47.6,47.4,47.0,84,84,83,30.01,29.98,0,0,0,0.00
2013-10-22,65.6,58.5,51.7,59.0,54.1,47.0,90,85,77,29.98,29.77,0,0,0,0.01
2013-10-23,64.5,57.9,45.4,60.3,48.9,34.9,92,74,45,29.95,29.64,0,0,0,0.01
2013-10-24,58.7,46.1,36.3,40.6,35.0,31.7,86,67,42,30.16,29.95,0,0,0,0.00
2013-10-25,55.3,45.1,36.0,37.1,32.5,27.5,82,63,39,30.31,30.14,0,0,0,0.00
2013-10-26,58.0,49.9,41.1,38.7,34.8,32.2,77,58,40,30.27,30.03,0,0,0,0.00
2013-10-27,66.8,51.8,40.8,46.0,39.7,35.1,84,66,39,30.09,30.01,0,0,0,0.00
2013-10-28,71.3,56.5,45.1,54.8,48.6,40.6,89,76,49,30.22,30.08,0,0,0,0.00
2013-10-29,72.5,60.7,54.5,58.8,54.2,50.7,90,80,58,30.29,30.20,0,0,0,0.00
2013-10-30,71.6,61.7,56.2,61.5,56.6,52.7,91,84,66,30.25,30.11,0,0,0,0.01
2013-10-31,74.9,65.4,58.4,63.4,58.6,55.4,92,79,60,30.15,29.87,0,0,0,0.00